Year,Month,Day,Hour,Minute,Value (Times are PST for temperature in C)
2008,12,21,10,48,0.50
2008,12,21,10,49,0.50
2008,12,21,10,50,0.50
2008,12,21,10,51,0.60
2008,12,21,10,52,0.60
2008,12,21,10,53,0.60
2008,12,21,10,54,0.60
2008,12,21,10,55,0.60
2008,12,21,10,56,0.60
2008,12,21,10,57,0.60
2008,12,21,10,58,0.60
2008,12,21,10,59,0.70
2008,12,21,11,00,0.70
2008,12,21,11,01,0.70
2008,12,21,11,02,0.70
2008,12,21,11,03,0.70
2008,12,21,11,04,0.70
2008,12,21,11,05,0.70
2008,12,21,11,06,0.70
2008,12,21,11,07,0.70
2008,12,21,11,08,0.70
2008,12,21,11,09,0.70
2008,12,21,11,10,0.70
2008,12,21,11,11,0.70
2008,12,21,11,12,0.70
2008,12,21,11,13,0.70
2008,12,21,11,14,0.70
2008,12,21,11,15,0.70
2008,12,21,11,16,0.70
2008,12,21,11,17,0.70
2008,12,21,11,18,0.70
2008,12,21,11,19,0.70
2008,12,21,11,20,0.70
2008,12,21,11,21,0.70
2008,12,21,11,22,0.70
2008,12,21,11,23,0.70
2008,12,21,11,24,0.70
2008,12,21,11,25,0.70
2008,12,21,11,26,0.70
2008,12,21,11,27,0.70
2008,12,21,11,28,0.70
2008,12,21,11,29,0.70
2008,12,21,11,30,0.70
2008,12,21,11,31,0.70
2008,12,21,11,32,0.80
2008,12,21,11,33,0.80
2008,12,21,11,34,0.80
2008,12,21,11,35,0.80
2008,12,21,11,36,0.80
2008,12,21,11,37,0.80
2008,12,21,11,38,0.80
2008,12,21,11,39,0.80
2008,12,21,11,40,0.80
2008,12,21,11,41,0.80
2008,12,21,11,42,0.80
2008,12,21,11,43,0.80
2008,12,21,11,44,0.80
2008,12,21,11,45,0.80
2008,12,21,11,46,0.80
2008,12,21,11,47,0.90
2008,12,21,11,48,0.90
2008,12,21,11,49,0.90
2008,12,21,11,50,0.90
2008,12,21,11,51,0.90
2008,12,21,11,52,0.90
2008,12,21,11,53,1.00
2008,12,21,11,54,1.00
2008,12,21,11,55,1.00
2008,12,21,11,56,1.00
2008,12,21,11,57,1.00
2008,12,21,11,58,1.10
2008,12,21,11,59,1.10
2008,12,21,12,00,1.10
2008,12,21,12,01,1.10
2008,12,21,12,02,1.10
2008,12,21,12,03,1.10
2008,12,21,12,04,1.20
2008,12,21,12,05,1.20
2008,12,21,12,06,1.20
2008,12,21,12,07,1.20
2008,12,21,12,08,1.20
2008,12,21,12,09,1.20
2008,12,21,12,10,1.20
2008,12,21,12,11,1.10
2008,12,21,12,12,1.10
2008,12,21,12,13,1.10
2008,12,21,12,14,1.10
2008,12,21,12,15,1.10
2008,12,21,12,16,1.10
2008,12,21,12,17,1.10
2008,12,21,12,18,1.10
2008,12,21,12,19,1.10
2008,12,21,12,20,1.10
2008,12,21,12,21,1.10
2008,12,21,12,22,1.10
2008,12,21,12,23,1.10
2008,12,21,12,24,1.10
2008,12,21,12,25,1.10
2008,12,21,12,26,1.10
2008,12,21,12,27,1.00
2008,12,21,12,28,1.00
2008,12,21,12,29,1.00
2008,12,21,12,30,1.00
2008,12,21,12,31,1.00
2008,12,21,12,32,1.00
2008,12,21,12,33,1.00
2008,12,21,12,34,1.00
2008,12,21,12,35,1.00
2008,12,21,12,36,1.00
2008,12,21,12,37,1.00
2008,12,21,12,38,1.00
2008,12,21,12,39,1.00
2008,12,21,12,40,1.00
2008,12,21,12,41,1.00
2008,12,21,12,42,1.00
2008,12,21,12,43,1.00
2008,12,21,12,44,1.00
2008,12,21,12,45,1.00
2008,12,21,12,46,1.00
2008,12,21,12,47,1.00
2008,12,21,12,48,1.00
2008,12,21,12,49,1.10
2008,12,21,12,50,1.10
2008,12,21,12,51,1.00
2008,12,21,12,52,1.10
2008,12,21,12,53,1.10
2008,12,21,12,54,1.10
2008,12,21,12,55,1.10
2008,12,21,12,56,1.10
2008,12,21,12,57,1.10
2008,12,21,12,58,1.10
2008,12,21,12,59,1.10
2008,12,21,13,00,1.10
2008,12,21,13,01,1.10
2008,12,21,13,02,1.20
2008,12,21,13,03,1.20
2008,12,21,13,04,1.20
2008,12,21,13,05,1.20
2008,12,21,13,06,1.20
2008,12,21,13,07,1.20
2008,12,21,13,08,1.20
2008,12,21,13,09,1.20
2008,12,21,13,10,1.20
2008,12,21,13,11,1.20
2008,12,21,13,12,1.20
2008,12,21,13,13,1.20
2008,12,21,13,14,1.20
2008,12,21,13,15,1.20
2008,12,21,13,16,1.20
2008,12,21,13,17,1.20
2008,12,21,13,18,1.20
2008,12,21,13,19,1.20
2008,12,21,13,20,1.20
2008,12,21,13,21,1.20
2008,12,21,13,22,1.30
2008,12,21,13,23,1.30
2008,12,21,13,24,1.30
2008,12,21,13,25,1.30
2008,12,21,13,26,1.30
2008,12,21,13,27,1.30
2008,12,21,13,28,1.30
2008,12,21,13,29,1.30
2008,12,21,13,30,1.30
2008,12,21,13,31,1.30
2008,12,21,13,32,1.30
2008,12,21,13,33,1.30
2008,12,21,13,34,1.30
2008,12,21,13,35,1.30
2008,12,21,13,36,1.30
2008,12,21,13,37,1.30
2008,12,21,13,38,1.30
2008,12,21,13,39,1.30
2008,12,21,13,40,1.30
2008,12,21,13,41,1.30
2008,12,21,13,42,1.40
2008,12,21,13,43,1.40
2008,12,21,13,44,1.40
2008,12,21,13,45,1.40
2008,12,21,13,46,1.40
2008,12,21,13,47,1.40
2008,12,21,13,48,1.40
2008,12,21,13,49,1.40
2008,12,21,13,50,1.40
2008,12,21,13,51,1.50
2008,12,21,13,52,1.50
2008,12,21,13,53,1.50
2008,12,21,13,54,1.50
2008,12,21,13,55,1.50
2008,12,21,13,56,1.50
2008,12,21,13,57,1.50
2008,12,21,13,58,1.50
2008,12,21,13,59,1.50
2008,12,21,14,00,1.50
2008,12,21,14,01,1.50
2008,12,21,14,02,1.50
2008,12,21,14,03,1.50
2008,12,21,14,04,1.50
2008,12,21,14,05,1.50
2008,12,21,14,06,1.60
2008,12,21,14,07,1.60
2008,12,21,14,08,1.60
2008,12,21,14,09,1.60
2008,12,21,14,10,1.60
2008,12,21,14,11,1.70
2008,12,21,14,12,1.70
2008,12,21,14,13,1.70
2008,12,21,14,14,1.70
2008,12,21,14,15,1.70
2008,12,21,14,16,1.70
2008,12,21,14,17,1.70
2008,12,21,14,18,1.60
2008,12,21,14,19,1.60
2008,12,21,14,20,1.60
2008,12,21,14,21,1.60
2008,12,21,14,22,1.60
2008,12,21,14,23,1.60
2008,12,21,14,24,1.60
2008,12,21,14,25,1.60
2008,12,21,14,26,1.60
2008,12,21,14,27,1.60
2008,12,21,14,28,1.60
2008,12,21,14,29,1.60
2008,12,21,14,30,1.60
2008,12,21,14,31,1.60
2008,12,21,14,32,1.60
2008,12,21,14,33,1.60
2008,12,21,14,34,1.60
2008,12,21,14,35,1.60
2008,12,21,14,36,1.60
2008,12,21,14,37,1.50
2008,12,21,14,38,1.50
2008,12,21,14,39,1.50
2008,12,21,14,40,1.40
2008,12,21,14,41,1.40
2008,12,21,14,42,1.30
2008,12,21,14,43,1.30
2008,12,21,14,44,1.30
2008,12,21,14,45,1.30
2008,12,21,14,46,1.30
2008,12,21,14,47,1.30
2008,12,21,14,48,1.30
2008,12,21,14,49,1.30
2008,12,21,14,50,1.30
2008,12,21,14,51,1.30
2008,12,21,14,52,1.30
2008,12,21,14,53,1.30
2008,12,21,14,54,1.30
2008,12,21,14,55,1.30
2008,12,21,14,56,1.30
2008,12,21,14,57,1.30
2008,12,21,14,58,1.30
2008,12,21,14,59,1.30
2008,12,21,15,00,1.30
2008,12,21,15,01,1.30
2008,12,21,15,02,1.30
2008,12,21,15,03,1.30
2008,12,21,15,04,1.30
2008,12,21,15,05,1.30
2008,12,21,15,06,1.30
2008,12,21,15,07,1.30
2008,12,21,15,08,1.30
2008,12,21,15,09,1.30
2008,12,21,15,10,1.30
2008,12,21,15,11,1.30
2008,12,21,15,12,1.30
2008,12,21,15,13,1.20
2008,12,21,15,14,1.20
2008,12,21,15,15,1.20
2008,12,21,15,16,1.20
2008,12,21,15,17,1.10
2008,12,21,15,18,1.10
2008,12,21,15,19,1.10
2008,12,21,15,20,1.10
2008,12,21,15,21,1.10
2008,12,21,15,22,1.00
2008,12,21,15,23,1.00
2008,12,21,15,24,1.00
2008,12,21,15,25,1.00
2008,12,21,15,26,1.00
2008,12,21,15,27,1.00
2008,12,21,15,28,1.00
2008,12,21,15,29,1.00
2008,12,21,15,30,1.00
2008,12,21,15,31,1.00
2008,12,21,15,32,1.00
2008,12,21,15,33,1.00
2008,12,21,15,34,1.00
2008,12,21,15,35,1.00
2008,12,21,15,36,1.00
2008,12,21,15,37,1.00
2008,12,21,15,38,1.00
2008,12,21,15,39,1.00
2008,12,21,15,40,1.00
2008,12,21,15,41,1.00
2008,12,21,15,42,1.00
2008,12,21,15,43,1.10
2008,12,21,15,44,1.10
2008,12,21,15,45,1.10
2008,12,21,15,46,1.10
2008,12,21,15,47,1.10
2008,12,21,15,48,1.10
2008,12,21,15,49,1.10
2008,12,21,15,50,1.10
2008,12,21,15,51,1.10
2008,12,21,15,52,1.10
2008,12,21,15,53,1.10
2008,12,21,15,54,1.10
2008,12,21,15,55,1.10
2008,12,21,15,56,1.10
2008,12,21,15,57,1.10
2008,12,21,15,58,1.10
2008,12,21,15,59,1.10
